Flag for Russia Weather past 2 weeks in Pyatigorsk, Russia

Now
66 °F

Clear.


Feels Like: 66 °F
Forecast: 62 / 85 °F
Wind: 3 mph from Southeast

Location: Mineral'Nye Vody

Current Time: Jul 5, 2015 at 12:22:38 AM

Latest Report: Jul 5, 2015 at 12:00 AM


Visibility: N/A

Pressure: 30.07 "Hg (28.25 "Hg at 533m altitude)

Humidity: 83%

Dew point: 61 °F

Location of PyatigorskLocation

Historic Weather in Pyatigorsk — Graph

°F

Pyatigorsk temperature yesterday

Maximum temperature yesterday: 84 °F (at 1:30 PM)
Minimum temperature yesterday: 66 °F (at 1:30 AM)
Average temperature yesterday: 74 °F

Past Weeks' High & Low Weather Summary

 TemperatureHumidityPressure
High90 °F (Jun 23, 1:30 PM)100% (Jun 22, 5:00 AM)30.15 "Hg (Jun 22, 5:00 AM)
Low59 °F (Jun 21, 4:00 AM)33% (Jun 23, 1:30 PM)29.65 "Hg (Jun 19, 11:00 PM)
Average73 °F72%29.87 "Hg
* Reported Jun 19 11:00 PM — Jul 4 11:00 PM, Pyatigorsk, Weather by CustomWeather, © 2015

Note: Actual official high and low records may vary slightly from our data, if they occured in-between our weather recording intervals... More about our weather records

Advertising

Pyatigorsk weather history for previous 24 hours

 ConditionsComfort  
Time TempWeatherWind HumidityBarometerVisibility
11:00 PM
Sat, Jul 4
66 °FClear.6 mph83%30.07 "HgN/A
10:30 PM68 °FClear.6 mph83%30.07 "HgN/A
10:00 PM70 °FClear.No wind78%30.07 "HgN/A
9:30 PM70 °FClear.1 mph78%30.07 "HgN/A
9:00 PM70 °FClear.3 mph73%30.07 "HgN/A
8:30 PM73 °FClear.3 mph69%30.07 "HgN/A
8:00 PM75 °FClear.6 mph61%30.07 "HgN/A
7:30 PM79 °FClear.8 mph54%30.07 "HgN/A
7:00 PM81 °FClear.1 mph48%30.07 "HgN/A
6:30 PM81 °FClear.6 mph48%30.07 "HgN/A
6:00 PM81 °FClear.8 mph51%30.07 "HgN/A
5:30 PM82 °FClear.10 mph48%30.07 "HgN/A
5:00 PM84 °FClear.8 mph45%30.07 "HgN/A
4:30 PM84 °FClear.10 mph40%30.07 "HgN/A
4:00 PM82 °FClear.10 mph40%30.07 "HgN/A
3:30 PM82 °FClear.10 mph40%30.07 "HgN/A
3:00 PM84 °FClear.13 mph40%30.09 "HgN/A
2:30 PM84 °FClear.15 mph37%30.09 "HgN/A
2:00 PM82 °FClear.8 mph42%30.09 "HgN/A
1:30 PM84 °FBroken clouds.13 mph40%30.09 "HgN/A
1:00 PM81 °FClear.13 mph45%30.12 "HgN/A
12:30 PM79 °FClear.8 mph51%30.12 "HgN/A
12:00 PM77 °FClear.10 mph54%30.12 "HgN/A
11:30 AM75 °FClear.10 mph61%30.15 "HgN/A
11:00 AM75 °FClear.8 mph61%30.15 "HgN/A
10:30 AM73 °FClear.8 mph65%30.15 "HgN/A
10:00 AM73 °FClear.6 mph65%30.15 "HgN/A
9:30 AM75 °FClear.6 mph61%30.15 "HgN/A
9:00 AM72 °FClear.3 mph69%30.15 "HgN/A
8:30 AM72 °FClear.3 mph69%30.15 "HgN/A
8:00 AM70 °FPartly sunny.No wind73%30.15 "HgN/A
7:30 AM70 °FPartly sunny.1 mph73%30.15 "HgN/A
7:00 AM68 °FPartly sunny.3 mph83%30.15 "HgN/A
6:30 AM66 °FPartly sunny.3 mph88%30.15 "HgN/A
6:00 AM66 °FPartly sunny.3 mph88%30.15 "HgN/A
5:30 AM66 °FPartly sunny.3 mph88%30.15 "HgN/A
5:00 AM66 °FPassing clouds.3 mph88%30.15 "HgN/A
4:30 AM66 °FPassing clouds.No wind88%30.12 "HgN/A
4:00 AM66 °FPassing clouds.No wind88%30.12 "HgN/A
3:30 AM66 °FPassing clouds.1 mph83%30.12 "HgN/A
3:00 AM66 °FPassing clouds.6 mph88%30.12 "HgN/A
2:30 AM66 °FPassing clouds.1 mph88%30.12 "HgN/A
2:00 AM66 °FPassing clouds.6 mph83%30.12 "HgN/A
1:30 AM66 °FPassing clouds.3 mph88%30.12 "HgN/A
1:00 AM68 °FPassing clouds.1 mph78%30.12 "HgN/A
12:30 AM68 °FPassing clouds.6 mph83%30.12 "HgN/A
12:00 AM68 °FPassing clouds.6 mph83%30.12 "HgN/A
Weather by CustomWeather, © 2015

See weather overviewHow to use our weather pages